When you browse on this site, cookies collect data to enhance your experience and personalize the content and advertising you see.
Visit our Privacy Policy to learn more. By continuing to use the site, you agree to this use of cookies and data.
  • In Portugal
  • List of Countries
  • For 7 days
  • Water Temperature
  • Satellite Maps
  • Weather Map
  • Weather Widgets
  • user-avatar
    Login

    Hourly Weather Tafilah

    Today, 19 January, Saturday

    Time Temperature Precipitation Wind Pressure Humidity
    00:00 +8°C° 0 mm 1 mps 702 mmHg 64%
    01:00 +8°C° 0 mm 1 mps 702 mmHg 64%
    02:00 +6°C° 0 mm 2 mps 701 mmHg 65%
    03:00 +6°C° 0 mm 2 mps 701 mmHg 64%
    04:00 +6°C° 0 mm 2 mps 701 mmHg 64%
    05:00 +6°C° 0 mm 2 mps 701 mmHg 63%
    06:00 +6°C° 0 mm 2 mps 702 mmHg 60%
    07:00 +7°C° 0 mm 2 mps 702 mmHg 58%
    08:00 +8°C° 0 mm 3 mps 702 mmHg 55%
    09:00 +9°C° 0 mm 2 mps 702 mmHg 49%
    10:00 +10°C° 0 mm 2 mps 702 mmHg 44%
    11:00 +13°C° 0 mm 2 mps 702 mmHg 38%
    12:00 +14°C° 0 mm 1 mps 702 mmHg 35%
    13:00 +14°C° 0 mm 1 mps 702 mmHg 32%
    14:00 +15°C° 0 mm 1 mps 701 mmHg 29%
    15:00 +14°C° 0 mm 1 mps 701 mmHg 31%
    16:00 +14°C° 0 mm 1 mps 701 mmHg 33%
    17:00 +13°C° 0 mm 1 mps 701 mmHg 34%
    18:00 +12°C° 0 mm 1 mps 701 mmHg 36%
    19:00 +12°C° 0 mm 1 mps 701 mmHg 38%
    20:00 +11°C° 0 mm 1 mps 701 mmHg 39%
    21:00 +11°C° 0 mm 1 mps 701 mmHg 39%
    22:00 +9°C° 0 mm 2 mps 701 mmHg 39%
    23:00 +9°C° 0 mm 2 mps 701 mmHg 39%

    Tomorrow, 20 January, Sunday

    Time Temperature Precipitation Wind Pressure Humidity
    00:00 +9°C° 0 mm 2 mps 701 mmHg 38%
    01:00 +8°C° 0 mm 2 mps 701 mmHg 36%
    02:00 +8°C° 0 mm 2 mps 701 mmHg 35%
    03:00 +8°C° 0 mm 2 mps 701 mmHg 33%
    04:00 +8°C° 0 mm 2 mps 701 mmHg 31%
    05:00 +8°C° 0 mm 3 mps 700 mmHg 29%
    06:00 +8°C° 0 mm 3 mps 701 mmHg 27%
    07:00 +9°C° 0 mm 3 mps 701 mmHg 25%
    08:00 +9°C° 0 mm 3 mps 701 mmHg 24%
    09:00 +12°C° 0 mm 2 mps 701 mmHg 22%
    10:00 +14°C° 0 mm 2 mps 701 mmHg 19%
    11:00 +16°C° 0 mm 2 mps 702 mmHg 17%
    12:00 +16°C° 0 mm 2 mps 701 mmHg 16%
    13:00 +18°C° 0 mm 1 mps 701 mmHg 15%
    14:00 +19°C° 0 mm 1 mps 700 mmHg 13%
    15:00 +18°C° 0 mm 1 mps 700 mmHg 14%
    16:00 +16°C° 0 mm 1 mps 700 mmHg 15%
    17:00 +15°C° 0 mm 1 mps 700 mmHg 16%
    18:00 +15°C° 0 mm 1 mps 700 mmHg 17%
    19:00 +14°C° 0 mm 1 mps 700 mmHg 18%
    20:00 +13°C° 0 mm 1 mps 700 mmHg 19%
    21:00 +13°C° 0 mm 1 mps 700 mmHg 20%
    22:00 +13°C° 0 mm 1 mps 700 mmHg 20%
    23:00 +13°C° 0 mm 2 mps 700 mmHg 20%

    Day after tomorrow, 21 January, Monday

    Time Temperature Precipitation Wind Pressure Humidity
    00:00 +13°C° 0 mm 2 mps 700 mmHg 22%
    01:00 +13°C° 0 mm 2 mps 700 mmHg 23%
    02:00 +13°C° 0 mm 2 mps 700 mmHg 25%
    03:00 +13°C° 0 mm 2 mps 699 mmHg 25%
    04:00 +13°C° 0 mm 2 mps 699 mmHg 25%
    05:00 +13°C° 0 mm 2 mps 699 mmHg 25%
    06:00 +13°C° 0 mm 1 mps 699 mmHg 25%
    07:00 +13°C° 0 mm 1 mps 700 mmHg 25%
    08:00 +14°C° 0 mm 1 mps 700 mmHg 25%
    09:00 +15°C° 0 mm 1 mps 700 mmHg 22%
    10:00 +16°C° 0 mm 2 mps 701 mmHg 20%
    11:00 +18°C° 0 mm 3 mps 701 mmHg 18%
    12:00 +18°C° 0 mm 3 mps 700 mmHg 18%
    13:00 +18°C° 0 mm 3 mps 700 mmHg 17%
    14:00 +18°C° 0 mm 4 mps 699 mmHg 17%
    15:00 +17°C° 0 mm 3 mps 699 mmHg 19%
    16:00 +16°C° 0 mm 3 mps 699 mmHg 21%
    17:00 +15°C° 0 mm 2 mps 700 mmHg 23%
    18:00 +15°C° 0 mm 2 mps 700 mmHg 26%
    19:00 +14°C° 0 mm 1 mps 700 mmHg 29%
    20:00 +13°C° 0 mm 1 mps 700 mmHg 32%
    21:00 +12°C° 0 mm 1 mps 700 mmHg 34%
    22:00 +12°C° 0 mm 1 mps 700 mmHg 36%
    23:00 +12°C° 0 mm 1 mps 700 mmHg 38%

    22 January, Tuesday

    Time Temperature Precipitation Wind Pressure Humidity
    00:00 +11°C° 0 mm 1 mps 700 mmHg 39%
    01:00 +11°C° 0 mm 1 mps 700 mmHg 39%
    02:00 +10°C° 0 mm 1 mps 700 mmHg 40%
    03:00 +10°C° 0 mm 1 mps 699 mmHg 41%
    04:00 +10°C° 0 mm 1 mps 699 mmHg 42%
    05:00 +9°C° 0 mm 1 mps 699 mmHg 43%
    06:00 +10°C° 0 mm 1 mps 699 mmHg 40%
    07:00 +11°C° 0 mm 1 mps 700 mmHg 37%
    08:00 +12°C° 0 mm 2 mps 700 mmHg 35%
    09:00 +14°C° 0 mm 1 mps 700 mmHg 31%
    10:00 +15°C° 0 mm 1 mps 700 mmHg 27%
    11:00 +18°C° 0 mm 1 mps 700 mmHg 22%
    12:00 +18°C° 0 mm 1 mps 700 mmHg 21%
    13:00 +18°C° 0 mm 2 mps 699 mmHg 19%
    14:00 +19°C° 0 mm 2 mps 699 mmHg 17%
    15:00 +18°C° 0 mm 2 mps 699 mmHg 18%
    16:00 +16°C° 0 mm 2 mps 698 mmHg 20%
    17:00 +15°C° 0 mm 1 mps 698 mmHg 22%
    18:00 +15°C° 0 mm 1 mps 698 mmHg 23%
    19:00 +14°C° 0 mm 1 mps 698 mmHg 25%
    20:00 +13°C° 0 mm 1 mps 698 mmHg 26%
    21:00 +12°C° 0 mm 1 mps 698 mmHg 26%
    22:00 +12°C° 0 mm 1 mps 698 mmHg 26%
    23:00 +11°C° 0 mm 1 mps 698 mmHg 25%

    23 January, Wednesday

    Time Temperature Precipitation Wind Pressure Humidity
    00:00 +11°C° 0 mm 1 mps 698 mmHg 26%
    01:00 +11°C° 0 mm 1 mps 698 mmHg 26%
    02:00 +10°C° 0 mm 1 mps 697 mmHg 27%
    03:00 +10°C° 0 mm 1 mps 697 mmHg 26%
    04:00 +10°C° 0 mm 1 mps 697 mmHg 26%
    05:00 +10°C° 0 mm 1 mps 697 mmHg 26%
    06:00 +9°C° 0 mm 2 mps 697 mmHg 25%
    07:00 +10°C° 0 mm 2 mps 698 mmHg 23%
    08:00 +12°C° 0 mm 2 mps 698 mmHg 21%
    09:00 +14°C° 0 mm 2 mps 698 mmHg 19%
    10:00 +15°C° 0 mm 2 mps 699 mmHg 16%
    11:00 +18°C° 0 mm 1 mps 699 mmHg 14%
    12:00 +19°C° 0 mm 1 mps 698 mmHg 13%
    13:00 +20°C° 0 mm 1 mps 698 mmHg 12%
    14:00 +20°C° 0 mm 1 mps 697 mmHg 11%
    15:00 +19°C° 0 mm 1 mps 697 mmHg 13%
    16:00 +19°C° 0 mm 1 mps 696 mmHg 15%
    17:00 +18°C° 0 mm 1 mps 696 mmHg 16%
    18:00 +17°C° 0 mm 2 mps 696 mmHg 16%
    19:00 +16°C° 0 mm 2 mps 696 mmHg 17%
    20:00 +16°C° 0 mm 3 mps 697 mmHg 17%
    21:00 +14°C° 0 mm 3 mps 696 mmHg 17%
    22:00 +14°C° 0 mm 3 mps 696 mmHg 18%
    23:00 +14°C° 0 mm 3 mps 696 mmHg 18%

    24 January, Thursday

    Time Temperature Precipitation Wind Pressure Humidity
    00:00 +13°C° 0 mm 3 mps 696 mmHg 18%
    01:00 +14°C° 0 mm 2 mps 696 mmHg 18%
    02:00 +13°C° 0 mm 2 mps 695 mmHg 18%
    03:00 +13°C° 0 mm 2 mps 695 mmHg 19%
    04:00 +13°C° 0 mm 2 mps 695 mmHg 20%
    05:00 +12°C° 0 mm 2 mps 695 mmHg 20%
    06:00 +13°C° 0 mm 2 mps 695 mmHg 21%
    07:00 +14°C° 0 mm 2 mps 696 mmHg 21%
    08:00 +15°C° 0 mm 2 mps 696 mmHg 21%
    09:00 +17°C° 0 mm 3 mps 696 mmHg 19%
    10:00 +19°C° 0 mm 4 mps 697 mmHg 16%
    11:00 +22°C° 0 mm 5 mps 697 mmHg 14%
    12:00 +22°C° 0 mm 6 mps 697 mmHg 13%
    13:00 +23°C° 0 mm 7 mps 697 mmHg 13%
    14:00 +23°C° 0 mm 7 mps 696 mmHg 13%
    15:00 +22°C° 0 mm 6 mps 696 mmHg 14%
    16:00 +21°C° 0 mm 5 mps 697 mmHg 15%
    17:00 +20°C° 0 mm 5 mps 697 mmHg 16%
    18:00 +19°C° 0 mm 3 mps 697 mmHg 18%
    19:00 +17°C° 0 mm 2 mps 697 mmHg 21%
    20:00 +16°C° 0 mm 1 mps 697 mmHg 24%
    21:00 +15°C° 0 mm 1 mps 697 mmHg 25%
    22:00 +15°C° 0 mm 1 mps 697 mmHg 25%
    23:00 +15°C° 0 mm 2 mps 698 mmHg 26%
    Show more